Regional Weather Roundup
Issued by NWS

Home | Current Version | Previous Version | Text Only | Print | Product List | Glossary Off
Versions: 1 2 3 4 5 6 7 8 9 10 11 12 13 14 15 16 17 18 19 20 21 22 23 24 25 26 27 28 29 30 31 32 33 34 35 36 37 38 39 40 41 42 43 44 45 46 47 48 49 50

000
ASUS43 KLMK 270902
RWRKY
KENTUCKY REGIONAL WEATHER ROUNDUP
NATIONAL WEATHER SERVICE LOUISVILLE KY
500 AM EDT WED JUL 27 2016

NOTE "FAIR" INDICATES FEW OR NO CLOUDS BELOW 12,000 FEET
WITH NO SIGNIFICANT WEATHER AND/OR OBSTRUCTIONS TO VISIBILITY.

KYZ001>023-026-027-061>063-070>075-271000-
WESTERN AND SOUTH CENTRAL KENTUCKY

CITY           SKY/WX    TMP DP  RH WIND       PRES   REMARKS
PADUCAH        CLOUDY    76  73  91 CALM      29.96S
HENDERSON      CLOUDY    73  70  88 CALM      29.96S VSB 1/4
OWENSBORO      CLEAR     76  76 100 CALM      29.97S FOG
HOPKINSVILLE   MOCLDY    76  74  94 CALM      29.96S
BOWLING GREEN  PTCLDY    79  76  90 CALM      29.97S
GLASGOW        NOT AVBL
$$

KYZ024-025-028>034-038-045-046-053-271000-
NORTH CENTRAL KENTUCKY

CITY           SKY/WX    TMP DP  RH WIND       PRES   REMARKS
LOUISVILLE/SDF MOCLDY    78  72  81 E3        29.98R
LOUISVILLE/LOU CLEAR     76  71  85 CALM      29.99R
FORT KNOX      PTCLDY    73  72  96 NE1       29.97F
$$

KYZ035>037-039>044-047>052-055>060-089>105-271000-
NORTHEAST KENTUCKY

CITY           SKY/WX    TMP DP  RH WIND       PRES   REMARKS
LEXINGTON      PTCLDY    74  70  87 CALM      30.00F
COVINGTON      CLOUDY    75  73  93 CALM      30.00S
FRANKFORT      FOG       73  70  90 CALM      29.99S VSB 3/4
$$

KYZ054-064>069-076>088-106>120-271000-
SOUTHEAST KENTUCKY

CITY           SKY/WX    TMP DP  RH WIND       PRES   REMARKS
JACKSON        CLEAR     73  70  90 CALM      30.02F
LONDON         CLEAR     74  71  91 CALM      30.02S
SOMERSET       MOCLDY    72  72 100 CALM      30.01F
MIDDLESBORO    CLOUDY    73  72  98 CALM      30.04R
MONTICELLO     RAIN     N/A N/A N/A W13G18    30.03R
$$





USA.gov is the U.S. government's official web portal to all federal, state and local government web resources and services.